カタログに戻る

CZ-6A DEB

運用中SSO
NORAD 56601·DEBRIS·🇨🇳 China

打ち上げ Nov 11, 2022 から Taiyuan Satellite Launch Center

Loading…

次のパス (今後24時間)

TLE

最新Source: Space-Track

元期: Sep 14, 2026, 07:06 UTC

1 56601U 22151ADZ 26257.29614268  .00000337  00000-0  12607-3 0  9991
2 56601  98.5995 277.4792 0114619 137.9658 223.0392 14.34463622177443

AllMySatでCZ-6A DEBをリアルタイム追跡

Download on the App Store